FW6456 Weather Reports


Display with metric or nautical units.
time (UTC)temp
F
wind
direction
speed
MPH
gust
MPH
rain 1hr
in
rain 24hr
in
rain mn
in
humidity
%
barometer
mb
20260507114526 45 121 0.0 0.0 0.00 0.00 0.00 98 3409.3
20260507114023 45 121 0.0 0.0 0.00 0.00 0.00 99 3409.3
20260507113520 45 121 0.0 0.0 0.00 0.00 0.00 99 3409.1
20260507113017 45 121 0.0 0.0 0.00 0.00 0.00 99 3408.9
20260507112515 45 121 0.0 0.0 0.00 0.00 0.00 99 3409.1
20260507112012 45 121 0.0 0.0 0.00 0.00 0.00 99 3409.1
20260507111510 45 124 0.0 0.0 0.00 0.00 0.00 99 3409.2
20260507111005 45 124 0.0 0.0 0.00 0.00 0.00 99 3409.1
20260507110502 45 124 0.0 0.0 0.00 0.00 0.00 99 3408.9
20260507105958 45 124 0.0 0.0 0.00 0.00 0.00 99 3409.2
20260507105455 45 124 0.0 0.0 0.00 0.00 0.00 99 3408.9
20260507104951 45 124 0.0 0.0 0.00 0.00 0.00 99 3409.0
20260507104449 45 124 0.0 0.0 0.00 0.00 0.00 99 3409.1
20260507103944 46 124 0.0 0.0 0.00 0.00 0.00 99 3408.8
20260507103441 46 124 0.0 0.0 0.00 0.00 0.00 99 3409.0
20260507102937 46 118 0.0 0.0 0.00 0.00 0.00 99 3408.8
20260507102434 46 142 0.0 0.0 0.00 0.00 0.00 99 3408.9
20260507101931 46 135 0.0 0.0 0.00 0.00 0.00 99 3408.9
20260507101426 46 238 0.0 0.0 0.00 0.00 0.00 99 3408.7
20260507100923 46 44 1.0 2.0 0.00 0.00 0.00 99 3408.7
20260507100420 46 40 0.0 0.0 0.00 0.00 0.00 99 3408.7
20260507095918 46 47 0.0 0.0 0.00 0.00 0.00 99 3408.4
20260507095415 46 50 0.0 0.0 0.00 0.00 0.00 99 3408.5
20260507094912 46 4 2.0 2.0 0.00 0.00 0.00 99 3408.4
20260507094408 46 30 0.0 0.0 0.00 0.00 0.00 99 3408.3
20260507093905 47 41 0.0 0.0 0.00 0.00 0.00 99 3408.2
20260507093403 47 41 0.0 0.0 0.00 0.00 0.00 99 3408.3
20260507092902 47 48 0.0 0.0 0.00 0.00 0.00 99 3408.1
20260507092357 47 16 0.0 0.0 0.00 0.00 0.00 99 3408.4
20260507091854 47 349 0.0 2.0 0.00 0.00 0.00 99 3408.2
20260507091350 46 346 0.0 0.0 0.00 0.00 0.00 99 3408.2
20260507090846 46 346 0.0 0.0 0.00 0.00 0.00 99 3408.1
20260507090343 47 346 0.0 0.0 0.00 0.00 0.00 99 3408.1
20260507085840 47 346 0.0 0.0 0.00 0.00 0.00 99 3408.1
20260507085337 47 346 0.0 0.0 0.00 0.00 0.00 99 3408.1
20260507084834 47 346 0.0 0.0 0.00 0.00 0.00 99 3408.0
20260507084330 47 346 0.0 0.0 0.00 0.00 0.00 99 3408.1
20260507083828 47 346 0.0 0.0 0.00 0.00 0.00 99 3408.0
20260507083324 47 346 0.0 0.0 0.00 0.00 0.00 99 3407.8
20260507082820 47 346 0.0 0.0 0.00 0.00 0.00 99 3407.9
20260507082316 47 346 0.0 0.0 0.00 0.00 0.00 99 3407.9
20260507081814 47 346 0.0 0.0 0.00 0.00 0.00 99 3407.9
20260507081309 47 346 0.0 0.0 0.00 0.00 0.00 99 3407.9
20260507080806 47 346 0.0 0.0 0.00 0.00 0.00 99 3408.1
20260507080302 48 346 0.0 0.0 0.00 0.00 0.00 99 3408.0
20260507075757 48 346 0.0 0.0 0.00 0.00 0.00 98 3408.0
20260507075254 48 346 0.0 0.0 0.00 0.00 0.00 98 3408.2
20260507074750 48 346 0.0 0.0 0.00 0.00 0.00 98 3408.0
20260507074249 48 346 0.0 0.0 0.00 0.00 0.00 98 3408.0
20260507073745 48 346 0.0 0.0 0.00 0.00 0.00 98 3407.9
20260507073242 48 346 0.0 0.0 0.00 0.00 0.00 98 3408.1
20260507072740 48 346 0.0 0.0 0.00 0.00 0.00 98 3408.0
20260507072237 48 346 0.0 0.0 0.00 0.00 0.00 98 3408.1
20260507071734 48 346 0.0 0.0 0.00 0.00 0.00 98 3407.9
20260507071230 48 346 0.0 0.0 0.00 0.00 0.00 98 3408.1
20260507070727 48 346 0.0 0.0 0.00 0.00 0.00 97 3408.1
20260507070224 48 346 0.0 0.0 0.00 0.00 0.00 97 3407.8
20260507065721 48 346 0.0 0.0 0.00 0.00 0.00 97 3407.9
20260507065218 48 346 0.0 0.0 0.00 0.00 0.00 97 3408.0
20260507064715 48 346 0.0 0.0 0.00 0.00 0.00 97 3407.9
20260507064214 49 346 0.0 0.0 0.00 0.00 0.00 97 3407.9
20260507063711 49 346 0.0 0.0 0.00 0.00 0.00 97 3407.9
20260507063207 49 346 0.0 0.0 0.00 0.00 0.00 97 3407.9
20260507062704 49 346 0.0 0.0 0.00 0.00 0.00 97 3408.0
20260507062202 49 346 0.0 0.0 0.00 0.00 0.00 97 3408.1
20260507061659 49 346 0.0 0.0 0.00 0.00 0.00 96 3408.0
20260507061157 50 346 0.0 0.0 0.00 0.00 0.00 96 3408.0
20260507060655 50 346 0.0 0.0 0.00 0.00 0.00 96 3408.2
20260507060151 50 346 0.0 0.0 0.00 0.00 0.00 96 3408.0
20260507055647 50 346 0.0 0.0 0.00 0.00 0.00 96 3407.7
20260507055143 50 346 0.0 0.0 0.00 0.00 0.00 95 3407.7
20260507054639 50 346 0.0 0.0 0.00 0.00 0.00 95 3408.0
20260507054136 51 346 0.0 0.0 0.00 0.00 0.00 95 3408.1
20260507053634 51 346 0.0 0.0 0.00 0.00 0.00 95 3408.2
20260507053132 51 346 0.0 0.0 0.00 0.00 0.00 95 3408.4
20260507052630 51 346 0.0 0.0 0.00 0.00 0.00 95 3408.5
20260507052126 51 346 0.0 0.0 0.00 0.00 0.00 95 3408.3
20260507051624 51 346 0.0 0.0 0.00 0.00 0.00 95 3408.2
20260507051121 51 346 0.0 0.0 0.00 0.00 0.00 94 3408.3
20260507050618 51 346 0.0 0.0 0.00 0.00 0.00 94 3408.2
20260507050114 51 346 0.0 0.0 0.00 0.00 0.00 94 3408.4
20260507045611 51 346 0.0 0.0 0.00 0.39 0.39 94 3408.3
20260507045108 51 346 0.0 0.0 0.00 0.39 0.39 94 3408.3
20260507044604 51 346 0.0 0.0 0.00 0.39 0.39 94 3408.3
20260507044102 51 346 0.0 0.0 0.00 0.39 0.39 94 3408.4
20260507043557 51 346 0.0 0.0 0.00 0.39 0.39 94 3408.4
20260507043055 51 346 0.0 0.0 0.00 0.39 0.39 95 3408.4
20260507042550 51 346 0.0 0.0 0.00 0.39 0.39 95 3408.1
20260507042046 51 346 0.0 0.0 0.00 0.39 0.39 95 3408.5
20260507041543 51 346 0.0 0.0 0.00 0.39 0.39 96 3408.4
20260507041040 51 346 0.0 0.0 0.00 0.39 0.39 96 3407.9
20260507040537 51 346 0.0 0.0 0.00 0.39 0.39 95 3407.8
20260507040033 51 346 0.0 0.0 0.00 0.39 0.39 95 3407.7
20260507035529 51 346 0.0 0.0 0.00 0.39 0.39 95 3407.4
20260507035026 51 346 0.0 0.0 0.00 0.39 0.39 95 3407.6
20260507034522 51 346 0.0 0.0 0.00 0.39 0.39 95 3407.6
20260507034020 51 346 0.0 0.0 0.00 0.39 0.39 95 3407.6
20260507033518 51 346 0.0 0.0 0.00 0.39 0.39 95 3407.5
20260507033015 51 346 0.0 0.0 0.00 0.39 0.39 94 3407.8
20260507032512 51 346 0.0 0.0 0.00 0.39 0.39 94 3407.8
20260507032008 51 346 0.0 0.0 0.00 0.39 0.39 94 3407.9
20260507031504 51 346 0.0 0.0 0.00 0.39 0.39 94 3408.2
20260507031002 51 346 0.0 0.0 0.00 0.39 0.39 94 3408.2
20260507030459 51 346 0.0 0.0 0.00 0.39 0.39 93 3408.3
20260507025956 51 346 0.0 0.0 0.00 0.39 0.39 93 3408.4
20260507025453 51 346 0.0 0.0 0.00 0.39 0.39 93 3408.4
20260507024951 51 346 0.0 0.0 0.00 0.39 0.39 92 3408.2
20260507024448 51 346 0.0 0.0 0.00 0.39 0.39 92 3408.4
20260507023944 51 346 0.0 0.0 0.00 0.39 0.39 91 3408.4
20260507023440 52 346 0.0 0.0 0.00 0.39 0.39 91 3408.6
20260507022938 52 346 0.0 0.0 0.00 0.39 0.39 90 3408.3
20260507022435 52 346 0.0 0.0 0.00 0.39 0.39 90 3408.5
20260507021930 52 346 0.0 0.0 0.00 0.39 0.39 90 3408.3
20260507021426 52 346 0.0 0.0 0.00 0.39 0.39 90 3408.2
20260507020924 53 346 0.0 0.0 0.00 0.39 0.39 89 3408.5
20260507020420 53 346 0.0 0.0 0.00 0.39 0.39 88 3408.4
20260507015917 53 346 0.0 0.0 0.00 0.39 0.39 88 3408.6
20260507015415 53 346 0.0 0.0 0.00 0.39 0.39 87 3408.5
20260507014912 53 346 0.0 0.0 0.00 0.39 0.39 87 3408.2
20260507014409 53 345 0.0 0.0 0.00 0.39 0.39 86 3408.1
20260507013905 54 346 0.0 0.0 0.00 0.39 0.39 86 3407.9
20260507013402 54 345 0.0 0.0 0.00 0.39 0.39 85 3407.9
20260507012900 54 345 0.0 0.0 0.00 0.39 0.39 84 3407.7
20260507012355 54 345 0.0 0.0 0.00 0.39 0.39 82 3407.6
20260507011853 55 345 0.0 0.0 0.00 0.39 0.39 81 3407.4
20260507011349 55 345 0.0 0.0 0.00 0.39 0.39 80 3407.0
20260507010843 55 345 0.0 0.0 0.00 0.39 0.39 80 3407.2
20260507010339 55 345 0.0 0.0 0.00 0.39 0.39 79 3406.9
20260507005837 55 345 0.0 2.0 0.00 0.39 0.39 78 3406.8
20260507005333 56 9 0.0 0.0 0.00 0.39 0.39 78 3406.7
20260507004830 56 9 0.0 0.0 0.00 0.39 0.39 78 3406.5
20260507004327 56 8 0.0 0.0 0.00 0.39 0.39 77 3406.5
20260507003824 56 29 0.0 0.0 0.00 0.39 0.39 77 3406.7
20260507003320 56 29 0.0 0.0 0.00 0.39 0.39 76 3406.4
20260507002815 57 29 0.0 0.0 0.00 0.39 0.39 77 3406.6
20260507002311 57 29 0.0 0.0 0.00 0.39 0.39 76 3406.5
20260507001809 57 29 0.0 0.0 0.00 0.39 0.39 74 3406.7
20260507001306 57 30 0.0 0.0 0.00 0.39 0.39 74 3407.0
20260507000802 57 31 0.0 2.0 0.00 0.39 0.39 74 3406.5
20260507000259 57 40 0.0 2.0 0.00 0.39 0.39 75 3406.5
20260506235754 57 15 0.0 0.0 0.00 0.39 0.39 74 3406.9
20260506235250 57 17 1.0 2.0 0.00 0.39 0.39 75 3406.7
20260506234748 57 25 0.0 0.0 0.00 0.39 0.39 74 3406.6
20260506234245 58 21 0.0 0.0 0.00 0.39 0.39 74 3406.7
20260506233742 58 289 3.0 5.0 0.00 0.39 0.39 74 3407.0
20260506233238 58 17 0.0 2.0 0.00 0.39 0.39 73 3406.7
20260506232735 58 26 0.0 0.0 0.00 0.39 0.39 74 3406.7
20260506232230 58 26 0.0 0.0 0.00 0.39 0.39 74 3406.7
20260506231727 57 25 0.0 0.0 0.00 0.39 0.39 74 3406.8
20260506231225 57 26 0.0 0.0 0.00 0.39 0.39 74 3407.2
20260506230716 58 26 0.0 0.0 0.00 0.39 0.39 74 3407.1
20260506230213 58 26 0.0 0.0 0.00 0.39 0.39 73 3407.2
20260506225710 58 26 0.0 0.0 0.00 0.39 0.39 73 3407.2
20260506225207 58 25 0.0 0.0 0.00 0.39 0.39 72 3407.1
20260506224703 58 42 0.0 0.0 0.00 0.39 0.39 72 3406.6
20260506224201 58 252 2.0 3.0 0.00 0.39 0.39 72 3406.7
20260506223656 58 255 0.0 0.0 0.00 0.39 0.39 71 3406.6
20260506223152 58 32 1.0 2.0 0.00 0.39 0.39 71 3407.0
20260506222649 58 275 4.0 7.0 0.00 0.39 0.39 72 3407.2
20260506222145 58 344 0.0 0.0 0.00 0.39 0.39 72 3407.7
20260506221644 58 7 1.0 2.0 0.00 0.39 0.39 72 3406.8
20260506221141 58 344 1.0 2.0 0.00 0.39 0.39 73 3406.6
20260506220638 58 29 1.0 2.0 0.00 0.39 0.39 72 3406.9
20260506220133 58 58 1.0 2.0 0.00 0.39 0.39 72 3407.2
20260506215630 59 71 0.0 0.0 0.00 0.39 0.39 72 3407.1
20260506215125 58 90 0.0 0.0 0.00 0.39 0.39 71 3407.0
20260506214622 59 350 1.0 2.0 0.00 0.39 0.39 70 3407.0
20260506214119 59 42 1.0 2.0 0.00 0.39 0.39 70 3407.2
20260506213618 59 152 0.0 0.0 0.00 0.39 0.39 70 3406.4
20260506213114 58 35 0.0 0.0 0.00 0.39 0.39 71 3406.6
20260506212612 59 273 5.0 8.0 0.00 0.39 0.39 70 3406.6
20260506212107 59 132 1.0 2.0 0.00 0.39 0.39 72 3407.1
20260506211603 59 355 2.0 3.0 0.00 0.39 0.39 71 3406.6
20260506211100 59 68 1.0 2.0 0.00 0.39 0.39 71 3406.3
20260506210556 60 344 2.0 2.0 0.00 0.39 0.39 71 3406.0
20260506210053 60 268 5.0 7.0 0.00 0.39 0.39 71 3405.7
20260506205549 59 239 2.0 2.0 0.00 0.39 0.39 72 3406.1
20260506205044 59 334 3.0 5.0 0.00 0.39 0.39 72 3405.9
20260506204543 59 346 1.0 2.0 0.00 0.39 0.39 73 3406.0
20260506204039 59 17 1.0 2.0 0.00 0.39 0.39 73 3406.6
20260506203538 59 321 2.0 3.0 0.00 0.39 0.39 73 3406.7
20260506203034 59 350 0.0 0.0 0.00 0.39 0.39 72 3406.9
20260506202532 59 28 1.0 2.0 0.00 0.39 0.39 73 3407.1
20260506202028 60 254 2.0 2.0 0.00 0.39 0.39 73 3407.4
20260506201526 60 348 2.0 3.0 0.00 0.39 0.39 74 3407.3
20260506201022 60 57 0.0 0.0 0.00 0.39 0.39 76 3407.2
20260506200518 60 13 2.0 3.0 0.00 0.39 0.39 74 3407.3
20260506200015 60 293 0.0 0.0 0.00 0.39 0.39 73 3407.1
20260506195513 60 351 0.0 2.0 0.00 0.39 0.39 73 3406.8
20260506195008 60 327 4.0 5.0 0.00 0.39 0.39 71 3406.8
20260506194505 60 314 5.0 7.0 0.00 0.39 0.39 72 3406.9
20260506193956 60 94 0.0 0.0 0.00 0.39 0.39 73 3407.1
20260506193454 59 310 2.0 3.0 0.00 0.39 0.39 72 3406.9
20260506192950 60 335 3.0 3.0 0.00 0.39 0.39 72 3407.4
20260506192447 60 23 0.0 0.0 0.00 0.39 0.39 72 3407.3
20260506191944 60 279 3.0 3.0 0.00 0.39 0.39 72 3407.0
20260506191440 60 70 0.0 0.0 0.00 0.39 0.39 73 3407.0
20260506190931 60 309 1.0 2.0 0.00 0.39 0.39 71 3406.8
20260506190428 60 25 0.0 0.0 0.00 0.39 0.39 72 3406.7
20260506185925 60 166 1.0 2.0 0.00 0.39 0.39 71 3406.9
20260506185422 60 143 1.0 2.0 0.00 0.39 0.39 71 3407.1
20260506184919 60 144 0.0 0.0 0.00 0.39 0.39 70 3406.8
20260506184416 60 182 0.0 2.0 0.00 0.39 0.39 69 3407.1
20260506183914 60 5 3.0 3.0 0.00 0.39 0.39 69 3407.1
20260506183408 61 308 3.0 3.0 0.00 0.39 0.39 67 3407.1
20260506182905 61 25 1.0 2.0 0.00 0.39 0.39 67 3406.9
20260506182403 61 67 0.0 0.0 0.00 0.39 0.39 68 3406.8
20260506181859 62 320 4.0 5.0 0.00 0.39 0.39 68 3407.0
20260506181358 62 307 2.0 3.0 0.00 0.39 0.39 68 3406.7
20260506180855 61 11 2.0 3.0 0.00 0.39 0.39 67 3406.6
20260506180351 62 295 7.0 10.0 0.00 0.39 0.39 66 3406.7
20260506175848 62 158 3.0 3.0 0.00 0.39 0.39 68 3406.6
20260506175345 62 103 2.0 2.0 0.00 0.39 0.39 66 3406.4
20260506174841 61 304 2.0 3.0 0.00 0.39 0.39 67 3406.2
20260506174339 61 129 2.0 3.0 0.00 0.39 0.39 68 3406.5
20260506173837 62 77 2.0 3.0 0.00 0.39 0.39 67 3406.3
20260506173333 62 79 0.0 0.0 0.00 0.39 0.39 70 3406.1
20260506172830 61 100 0.0 2.0 0.00 0.39 0.39 70 3406.4
20260506172327 61 78 1.0 2.0 0.00 0.39 0.39 68 3406.4
20260506171824 61 6 3.0 3.0 0.00 0.39 0.39 70 3406.5
20260506171321 60 76 0.0 0.0 0.00 0.39 0.39 73 3406.5
20260506170819 61 149 1.0 2.0 0.00 0.39 0.39 68 3406.6
20260506170314 61 151 3.0 3.0 0.00 0.39 0.39 70 3406.8
20260506165814 60 39 0.0 0.0 0.00 0.39 0.39 70 3407.0
20260506165311 60 167 1.0 3.0 0.00 0.39 0.39 72 3406.6
20260506164807 59 37 0.0 2.0 0.00 0.39 0.39 71 3407.1
20260506164304 59 316 0.0 2.0 0.00 0.39 0.39 70 3407.1
20260506163801 59 217 1.0 2.0 0.00 0.39 0.39 71 3407.0
20260506163256 58 293 1.0 3.0 0.00 0.39 0.39 72 3407.2
20260506162752 58 257 6.0 8.0 0.00 0.39 0.39 73 3407.1
20260506162250 58 348 5.0 7.0 0.00 0.39 0.39 74 3407.1
20260506161747 59 263 4.0 5.0 0.00 0.39 0.39 75 3406.9
20260506161244 59 112 0.0 0.0 0.00 0.39 0.39 75 3407.2
20260506160742 58 46 1.0 2.0 0.00 0.39 0.39 75 3406.9
20260506160238 58 135 1.0 2.0 0.00 0.39 0.39 76 3407.2
20260506155737 58 116 0.0 2.0 0.00 0.39 0.39 76 3407.0
20260506155233 58 114 0.0 2.0 0.00 0.39 0.39 77 3406.9
20260506153341 56 72 0.0 2.0 0.00 0.39 0.39 77 3407.0
20260506152837 56 20 0.0 0.0 0.00 0.39 0.39 77 3406.8
20260506152335 55 34 1.0 2.0 0.00 0.39 0.39 78 3406.7
20260506151833 55 335 4.0 5.0 0.00 0.39 0.39 78 3407.0
20260506151329 55 295 1.0 3.0 0.00 0.39 0.39 80 3407.0
20260506150827 55 116 0.0 2.0 0.00 0.39 0.39 81 3406.8
20260506150324 56 124 0.0 0.0 0.00 0.39 0.39 83 3406.8
20260506145820 55 84 0.0 0.0 0.00 0.39 0.39 83 3406.7
20260506145316 55 89 0.0 0.0 0.00 0.39 0.39 84 3406.6
20260506144814 54 89 0.0 0.0 0.00 0.39 0.39 83 3406.5
20260506144311 54 76 0.0 0.0 0.00 0.39 0.39 84 3406.4
20260506143809 52 94 0.0 2.0 0.00 0.39 0.39 87 3406.1
20260506143306 52 83 0.0 2.0 0.00 0.39 0.39 89 3405.8
20260506142804 51 139 3.0 3.0 0.00 0.39 0.39 94 3406.1
20260506142302 50 168 5.0 7.0 0.00 0.39 0.39 98 3406.1
20260506141800 49 141 2.0 3.0 0.00 0.39 0.39 99 3406.0
20260506141258 49 83 0.0 0.0 0.00 0.39 0.39 99 3405.8
20260506140755 50 179 3.0 5.0 0.00 0.39 0.39 99 3405.5
20260506140252 50 76 0.0 0.0 0.00 0.39 0.39 99 3405.5
20260506135749 50 142 1.0 2.0 0.00 0.39 0.39 99 3405.4
20260506135245 50 86 0.0 0.0 0.00 0.39 0.39 99 3405.6
20260506134742 50 69 0.0 2.0 0.00 0.39 0.39 99 3405.5
20260506134238 50 280 2.0 3.0 0.00 0.39 0.39 99 3405.5
20260506133736 50 275 3.0 3.0 0.00 0.39 0.39 99 3405.6
20260506133232 50 20 1.0 2.0 0.00 0.39 0.39 99 3405.6
20260506132729 50 102 0.0 0.0 0.00 0.39 0.39 99 3405.6
20260506132226 49 82 0.0 0.0 0.00 0.39 0.39 99 3405.6
20260506131724 49 111 0.0 0.0 0.00 0.39 0.39 99 3405.5
20260506131220 49 327 1.0 2.0 0.00 0.39 0.39 99 3405.6
20260506130717 49 338 2.0 5.0 0.00 0.39 0.39 99 3405.7
20260506130214 49 41 1.0 2.0 0.00 0.39 0.39 99 3405.7
20260506125712 49 22 1.0 2.0 0.00 0.39 0.39 99 3405.6
20260506125209 49 64 0.0 0.0 0.00 0.39 0.39 99 3405.3
20260506124707 49 54 0.0 0.0 0.00 0.39 0.39 99 3405.6
20260506124205 49 74 0.0 0.0 0.00 0.39 0.39 99 3405.3
20260506123702 49 79 0.0 0.0 0.00 0.39 0.39 99 3405.5
20260506123201 49 83 0.0 0.0 0.00 0.39 0.39 99 3405.2
20260506122657 49 30 1.0 2.0 0.00 0.39 0.39 99 3405.2
20260506122155 49 65 0.0 2.0 0.00 0.39 0.39 99 3405.2
20260506121652 49 350 2.0 3.0 0.00 0.39 0.39 99 3405.1
20260506121148 49 39 1.0 2.0 0.00 0.39 0.39 99 3405.0
20260506120647 49 289 2.0 3.0 0.00 0.39 0.39 99 3404.9
20260506120144 49 37 2.0 3.0 0.00 0.39 0.39 99 3404.9
20260506115642 49 62 1.0 2.0 0.00 0.39 0.39 99 3404.9
20260506115140 49 8 2.0 3.0 0.00 0.39 0.39 99 3404.8